This demonstration page uses our WeatherBlox Daily Observations layout. Learn more.

Left ArrowRight Arrow

39.29038, -76.61219

Hourly Observations for March 9, 2018

Temp ( °F °C ) Dew Point ( °F °C ) Humidity (%) Winds ( mph kmh ) Pressure ( in mb ) Visibility ( mi km ) Precip ( " mm )
12:54 am 00:54 undefined 35 1.7 18 -7.8 50 50 undefined N/A 29.83 1010 N/A 0.00 0.00
1:54 am 01:54 undefined 35 1.7 20 -6.7 54 54 undefined N/A 29.82 1010 N/A 0.00 0.00
2:54 am 02:54 undefined 34 1.1 19 -7.2 54 54 undefined N/A 29.80 1009 N/A 0.00 0.00
3:54 am 03:54 undefined 34 1.1 17 -8.3 50 50 undefined N/A 29.80 1009 N/A 0.00 0.00
4:54 am 04:54 undefined 34 1.1 16 -8.9 48 48 undefined N/A 29.81 1010 N/A 0.00 0.00
5:54 am 05:54 undefined 33 0.6 17 -8.3 52 52 undefined N/A 29.82 1010 N/A 0.00 0.00
6:54 am 06:54 undefined 34 1.1 17 -8.3 50 50 undefined N/A 29.84 1011 N/A 0.00 0.00
7:54 am 07:54 undefined 36 2.2 17 -8.3 46 46 undefined N/A 29.89 1012 N/A 0.00 0.00
8:54 am 08:54 undefined 38 3.3 17 -8.3 43 43 undefined N/A 29.89 1012 N/A 0.00 0.00
9:54 am 09:54 undefined 40 4.4 18 -7.8 41 41 undefined N/A 29.91 1013 N/A 0.00 0.00
10:54 am 10:54 undefined 40 4.4 18 -7.8 41 41 undefined N/A 29.91 1013 N/A 0.00 0.00
11:54 am 11:54 undefined 43 6.1 18 -7.8 37 37 undefined N/A 29.91 1013 N/A 0.00 0.00
12:54 pm 12:54 undefined 45 7.2 18 -7.8 34 34 undefined N/A 29.89 1012 N/A 0.00 0.00
1:54 pm 13:54 undefined 44 6.7 16 -8.9 32 32 undefined N/A 29.90 1013 N/A 0.00 0.00
2:54 pm 14:54 undefined 42 5.6 17 -8.3 36 36 undefined N/A 29.88 1012 N/A 0.00 0.00
3:54 pm 15:54 undefined 42 5.6 17 -8.3 36 36 undefined N/A 29.90 1012 N/A 0.00 0.00
4:54 pm 16:54 undefined 41 5 17 -8.3 38 38 undefined N/A 29.91 1013 N/A 0.00 0.00
5:54 pm 17:54 undefined 40 4.4 16 -8.9 38 38 undefined N/A 29.94 1014 N/A 0.00 0.00
6:54 pm 18:54 undefined 39 3.9 16 -8.9 39 39 undefined N/A 29.94 1014 N/A 0.00 0.00
7:54 pm 19:54 undefined 38 3.3 14 -10 37 37 undefined N/A 29.97 1015 N/A 0.00 0.00
8:54 pm 20:54 undefined 37 2.8 14 -10 39 39 undefined N/A 29.98 1015 N/A 0.00 0.00
9:54 pm 21:54 undefined 36 2.2 15 -9.4 42 42 undefined N/A 29.99 1016 N/A 0.00 0.00
10:54 pm 22:54 undefined 36 2.2 16 -8.9 44 44 undefined N/A 29.99 1016 N/A 0.00 0.00
11:54 pm 23:54 undefined 35 1.7 17 -8.3 48 48 undefined N/A 30.00 1016 N/A 0.00 0.00

Powered by AerisWeather